Terminal Aerodrome Forecast
Issued by NWS Charleston, WV

Current Version | Previous Version | Graphics & Text | Print | Product List | Glossary On
Versions: 1 2 3 4 5 6 7 8 9 10 11 12 13 14 15 16 17 18 19 20 21 22 23 24 25
000
FTUS41 KRLX 241500 AAA
TAFEKN
TAF AMD
KEKN 241511Z 2415/2512 00000KT P6SM BKN110
     FM241600 33004KT P6SM BKN100
     FM242000 02006KT P6SM BKN090
     FM250000 00000KT P6SM SCT250
     FM250500 12004KT P6SM SCT100
     FM250800 16006KT P6SM BKN250=

USA.gov is the U.S. government's official web portal to all federal, state and local government web resources and services.